Location: Mohawk View
(42.7837°N, 73.7885°W)
Time: 08:33:48
(UTC+00:00)

SL-16 R/B - Pass Details

Date: 17 June 2021
Orbit: 843 x 845 km, 71.0° (Epoch: 27 July)

Event Time Altitude Azimuth Distance (km) Brightness Sun altitude
Rises 01:00:23 0° 182° (S) 3,384 5.0 -4.5°
Reaches altitude 10° 01:02:56 10° 176° (S) 2,454 4.2 -4.9°
Maximum altitude 01:08:12 43° 107° (ESE) 1,177 2.6 -5.6°
Drops below altitude 10° 01:13:31 10° 37° (NE) 2,471 4.7 -6.4°
Sets 01:16:04 0° 31° (NNE) 3,411 5.5 -6.7°
